Darstellungsparameter: Aktuell verwendete Einstellungen:
Skalierung der Graphiken ... ?
xyx+y,   Skalierungsfaktor:      Skalierung: Modus: x, Faktor: 1
Darstellungszeitraum ... ?
Vom - - bis: - -   Zeitraum: 26.03.2011 - 26.03.2011
Min/Max/Avg-Anzeige ... ?
Zeige MMA aktuell
Zeige MMA Monat
Zeige MMA alles
Zeige --A aktuell
Zeige --A Monat
Zeige --A alles
Keine MMA-Anzeige
MMA:
Average (ber die Originaldaten)
MMA-Basis: 26.03.2011 - 26.03.2011
Quicknavigation für Darstellung... ?
Tage:      1T, 2T, 3T, 5T -1T -2T -3T -5T +1T +2T +3T +5T
Wochen: 1W, 2W, 3W -1W -2W -3W +1W +2W +3W
Monate: 1M, 3M, 6M -1M -3M -6M +1M +3M +6M
Jahre:    1J, 3J, 5J, 10J -1J -3J -5J -10J +1J +3J +5J +10J
Nutze für die Darstellung ... ?
Originaldaten oder Mittelwerte auf ...
Stundenbasis Tagesbasis Wochenbasis
Monatsbasis Jahresbasis      Datenbasis: Original-Daten
Darstellen als:
Statistik (Auto) Statistik J:M      Darstellung:
Zur Graphik,    zurück zur Übersicht aller Sensoren.
 
Tabellarische Datenbersicht: ?
 
Sensor: Nr:Datum:Temp:Abs-Feuchte:Windchill:Wind:
Aussen-T/F 1 26-03-2011 00:01:09 6.6 C 5.81 g/m*3 6.6 C 0 km/h
2 26-03-2011 00:13:09 5.7 C 5.48 g/m*3 5.7 C 0 km/h
3 26-03-2011 00:25:09 5.3 C 5.48 g/m*3 5.3 C 0 km/h
4 26-03-2011 00:37:09 5.2 C 5.58 g/m*3 5.2 C 0 km/h
5 26-03-2011 00:49:10 5 C 5.57 g/m*3 5 C 0 km/h
6 26-03-2011 01:01:10 4.6 C 5.56 g/m*3 4.6 C 0 km/h
7 26-03-2011 01:13:10 4.8 C 5.7 g/m*3 4.8 C 0 km/h
8 26-03-2011 01:25:10 5.7 C 6.05 g/m*3 5.7 C 0 km/h
9 26-03-2011 01:37:10 5.7 C 5.98 g/m*3 5.7 C 0 km/h
10 26-03-2011 01:49:10 5.4 C 5.72 g/m*3 5.4 C 0 km/h
11 26-03-2011 02:01:10 4.7 C 5.53 g/m*3 4.7 C 0 km/h
12 26-03-2011 02:13:10 4.7 C 5.6 g/m*3 4.7 C 0 km/h
13 26-03-2011 02:25:10 4.8 C 5.7 g/m*3 4.8 C 0 km/h
14 26-03-2011 02:37:10 4.6 C 5.62 g/m*3 4.6 C 0 km/h
15 26-03-2011 02:49:10 4.3 C 5.51 g/m*3 4.3 C 0 km/h
16 26-03-2011 03:01:10 3.9 C 5.43 g/m*3 3.9 C 0 km/h
17 26-03-2011 03:13:10 4.1 C 5.5 g/m*3 4.1 C 0 km/h
18 26-03-2011 03:25:10 3.3 C 5.28 g/m*3 3.3 C 0 km/h
19 26-03-2011 03:37:10 3.6 C 5.45 g/m*3 3.6 C 0 km/h
20 26-03-2011 03:49:10 4.8 C 5.97 g/m*3 4.8 C 0 km/h
21 26-03-2011 04:01:10 4.5 C 5.78 g/m*3 4.5 C 0 km/h
22 26-03-2011 04:13:10 3.9 C 5.56 g/m*3 3.9 C 0 km/h
23 26-03-2011 04:25:10 4.2 C 5.67 g/m*3 4.2 C 0 km/h
24 26-03-2011 04:37:10 4.5 C 5.78 g/m*3 4.5 C 0 km/h
25 26-03-2011 04:49:11 5.1 C 5.95 g/m*3 5.1 C 0 km/h
Sensor: Nr:Datum:Temp:Abs-Feuchte:Windchill:Wind:
Aussen-T/F 26 26-03-2011 05:01:11 4.9 C 5.74 g/m*3 4.9 C 0 km/h
27 26-03-2011 05:13:11 5 C 5.64 g/m*3 5 C 0 km/h
28 26-03-2011 05:25:11 4.8 C 5.57 g/m*3 4.8 C 0 km/h
29 26-03-2011 05:37:11 4.8 C 5.57 g/m*3 4.8 C 0 km/h
30 26-03-2011 05:49:11 4.8 C 5.5 g/m*3 4.8 C 0 km/h
31 26-03-2011 06:01:11 4.8 C 5.5 g/m*3 4.8 C 0 km/h
32 26-03-2011 06:13:11 4.8 C 5.5 g/m*3 4.8 C 0 km/h
33 26-03-2011 06:25:11 4.8 C 5.5 g/m*3 4.8 C 0 km/h
34 26-03-2011 06:37:11 4.8 C 5.5 g/m*3 4.8 C 0 km/h
35 26-03-2011 06:49:11 5.1 C 5.54 g/m*3 5.1 C 0 km/h
36 26-03-2011 07:01:11 5.3 C 5.54 g/m*3 5.3 C 0 km/h
37 26-03-2011 07:13:11 5.5 C 5.55 g/m*3 5.5 C 0 km/h
38 26-03-2011 07:25:11 5.6 C 5.51 g/m*3 5.6 C 0 km/h
39 26-03-2011 07:37:11 5.8 C 5.59 g/m*3 5.8 C 0 km/h
40 26-03-2011 07:49:03 6 C 5.52 g/m*3 6 C 0 km/h
41 26-03-2011 08:01:02 5.7 C 5.48 g/m*3 5.7 C 0 km/h
42 26-03-2011 08:13:02 5.7 C 5.55 g/m*3 5.7 C 0 km/h
43 26-03-2011 08:25:03 6 C 5.59 g/m*3 6 C 0 km/h
44 26-03-2011 08:37:02 6.4 C 5.74 g/m*3 6.4 C 0 km/h
45 26-03-2011 08:49:02 7.8 C 5.96 g/m*3 7.8 C 0 km/h
46 26-03-2011 09:01:02 8.8 C 5.74 g/m*3 8.8 C 0 km/h
47 26-03-2011 09:13:02 9.1 C 5.41 g/m*3 9.1 C 0 km/h
48 26-03-2011 09:25:02 8.5 C 5.29 g/m*3 8.5 C 0 km/h
49 26-03-2011 09:37:02 9.3 C 5.12 g/m*3 9.3 C 0 km/h
50 26-03-2011 09:49:02 8.7 C 5.02 g/m*3 8.7 C 0 km/h
Sensor: Nr:Datum:Temp:Abs-Feuchte:Windchill:Wind:
Aussen-T/F 51 26-03-2011 10:01:02 9.2 C 4.91 g/m*3 9.2 C 0 km/h
52 26-03-2011 10:13:02 9 C 4.76 g/m*3 9 C 0 km/h
53 26-03-2011 10:25:02 9.2 C 4.64 g/m*3 9.2 C 0 km/h
54 26-03-2011 10:37:02 9.1 C 4.44 g/m*3 9.1 C 0 km/h
55 26-03-2011 10:49:02 9.3 C 4.22 g/m*3 9.3 C 0 km/h
56 26-03-2011 11:01:03 10 C 4.23 g/m*3 10 C 0 km/h
57 26-03-2011 11:13:03 10.1 C 3.88 g/m*3 10.1 C 0 km/h
58 26-03-2011 11:25:02 9.9 C 3.83 g/m*3 9.9 C 0 km/h
59 26-03-2011 11:37:02 11.1 C 3.83 g/m*3 11.1 C 0 km/h
60 26-03-2011 11:49:02 11.7 C 3.77 g/m*3 11.7 C 0 km/h
61 26-03-2011 12:01:02 11.8 C 3.68 g/m*3 11.8 C 0 km/h
62 26-03-2011 12:13:02 12.4 C 3.5 g/m*3 12.4 C 0 km/h
63 26-03-2011 12:25:01 11.9 C 3.39 g/m*3 11.9 C 0 km/h
64 26-03-2011 12:37:02 12 C 3.2 g/m*3 12 C 0 km/h
65 26-03-2011 12:49:02 14.7 C 3.27 g/m*3 14.7 C 0 km/h
66 26-03-2011 13:01:02 13.4 C 2.91 g/m*3 13.4 C 0 km/h
67 26-03-2011 13:13:02 13.3 C 3.23 g/m*3 13.3 C 0 km/h
68 26-03-2011 13:25:02 13.4 C 3.49 g/m*3 13.4 C 0 km/h
69 26-03-2011 13:37:02 13.4 C 3.25 g/m*3 13.4 C 0 km/h
70 26-03-2011 13:49:02 13.2 C 3.33 g/m*3 13.2 C 0 km/h
71 26-03-2011 14:01:02 13 C 3.4 g/m*3 13 C 0 km/h
72 26-03-2011 14:13:02 13.2 C 3.21 g/m*3 13.2 C 0 km/h
73 26-03-2011 14:25:02 14.2 C 3.17 g/m*3 14.2 C 0 km/h
74 26-03-2011 14:37:02 15.9 C 2.71 g/m*3 15.9 C 0 km/h
75 26-03-2011 14:49:01 16.6 C 2.83 g/m*3 16.6 C 0 km/h
Sensor: Nr:Datum:Temp:Abs-Feuchte:Windchill:Wind:
Aussen-T/F 76 26-03-2011 15:01:02 14.7 C 2.77 g/m*3 14.7 C 0 km/h
77 26-03-2011 15:13:02 15.1 C 2.71 g/m*3 15.1 C 0 km/h
78 26-03-2011 15:25:01 16.5 C 2.81 g/m*3 16.5 C 0 km/h
79 26-03-2011 15:37:01 15.7 C 3.21 g/m*3 15.7 C 0 km/h
80 26-03-2011 15:49:01 14.6 C 3.25 g/m*3 14.6 C 0 km/h
81 26-03-2011 16:01:02 13.3 C 3.23 g/m*3 13.3 C 0 km/h
82 26-03-2011 16:13:02 13 C 3.4 g/m*3 13 C 0 km/h
83 26-03-2011 16:25:01 12.7 C 3.45 g/m*3 12.7 C 0 km/h
84 26-03-2011 16:37:02 12.3 C 3.47 g/m*3 12.3 C 0 km/h
85 26-03-2011 16:49:01 12 C 3.73 g/m*3 12 C 0 km/h
86 26-03-2011 17:01:02 11.6 C 3.74 g/m*3 11.6 C 0 km/h
87 26-03-2011 17:13:02 11.5 C 3.93 g/m*3 11.5 C 0 km/h
88 26-03-2011 17:25:01 11.1 C 3.83 g/m*3 11.1 C 0 km/h
89 26-03-2011 17:37:02 10.8 C 3.95 g/m*3 10.8 C 0 km/h
90 26-03-2011 17:49:01 10.5 C 3.88 g/m*3 10.5 C 0 km/h
91 26-03-2011 18:01:02 10.3 C 3.93 g/m*3 10.3 C 0 km/h
92 26-03-2011 18:13:02 10 C 4.04 g/m*3 10 C 0 km/h
93 26-03-2011 18:25:02 9.5 C 4.01 g/m*3 9.5 C 0 km/h
94 26-03-2011 18:37:01 8.9 C 4.29 g/m*3 8.9 C 0 km/h
95 26-03-2011 18:49:01 8.3 C 4.3 g/m*3 8.3 C 0 km/h
96 26-03-2011 19:01:02 8 C 4.38 g/m*3 8 C 0 km/h
97 26-03-2011 19:13:02 8.1 C 4.41 g/m*3 8.1 C 0 km/h
98 26-03-2011 19:25:02 8.2 C 4.44 g/m*3 8.2 C 0 km/h
99 26-03-2011 19:37:01 7.8 C 4.49 g/m*3 7.8 C 0 km/h
100 26-03-2011 19:49:02 7.9 C 4.52 g/m*3 7.9 C 0 km/h
Sensor: Nr:Datum:Temp:Abs-Feuchte:Windchill:Wind:
Aussen-T/F 101 26-03-2011 20:01:01 7.2 C 4.47 g/m*3 7.2 C 0 km/h
102 26-03-2011 20:13:01 6.7 C 4.48 g/m*3 6.7 C 0 km/h
103 26-03-2011 20:25:02 6.7 C 4.56 g/m*3 6.7 C 0 km/h
104 26-03-2011 20:37:01 6.6 C 4.53 g/m*3 6.6 C 0 km/h
105 26-03-2011 20:49:02 6.5 C 4.65 g/m*3 6.5 C 0 km/h
106 26-03-2011 21:01:02 6.5 C 4.65 g/m*3 6.5 C 0 km/h
107 26-03-2011 21:13:02 6.3 C 4.66 g/m*3 6.3 C 0 km/h
108 26-03-2011 21:25:02 6.2 C 4.78 g/m*3 6.2 C 0 km/h
109 26-03-2011 21:37:02 5.9 C 4.76 g/m*3 5.9 C 0 km/h
110 26-03-2011 21:49:02 5.7 C 4.77 g/m*3 5.7 C 0 km/h
111 26-03-2011 22:01:02 5.7 C 4.77 g/m*3 5.7 C 0 km/h
112 26-03-2011 22:13:02 5.7 C 4.84 g/m*3 5.7 C 0 km/h
113 26-03-2011 22:26:02 5.4 C 4.74 g/m*3 5.4 C 0 km/h
114 26-03-2011 22:38:02 5.6 C 4.88 g/m*3 5.6 C 0 km/h
115 26-03-2011 22:50:02 5.8 C 4.94 g/m*3 5.8 C 0 km/h
116 26-03-2011 23:02:03 5.6 C 4.88 g/m*3 5.6 C 0 km/h
117 26-03-2011 23:14:03 5.5 C 4.92 g/m*3 5.5 C 0 km/h
118 26-03-2011 23:26:03 5.4 C 4.81 g/m*3 5.4 C 0 km/h
119 26-03-2011 23:38:03 5.1 C 4.79 g/m*3 5.1 C 0 km/h
120 26-03-2011 23:50:03 5 C 4.82 g/m*3 5 C 0 km/h

Legende:
   Min
   Max


Maximal/Minimal-Werte vom 26.03.2011 - 26.03.2011

Sensor Min Max Avg
Temp
(Aussen-T/F)
3.3 °C
26-03-2011  03:25:10
16.6 °C
26-03-2011  14:49:01
8.12 °C
Abs-Feuchte
(Aussen-T/F)
2.71 g/m*3
26-03-2011  14:37:02
6.05 g/m*3
26-03-2011  01:25:10
4.62 g/m*3
Windchill
(Aussen-T/F)
3.3 C
26-03-2011  03:25:10
16.6 C
26-03-2011  14:49:01
8.05 C

Die Daten stammen von einer Davis Vantage Pro 2 Wetter-Station und werden unter Linux mit der Software wview2wettercgi und aufbereitet. Alle Angaben erfolgen ohne Gewähr für ihre Vollständigkeit oder Richtigkeit.
Kontakt: Rainer Krienke krienke@uni-koblenz.de . Meine Webseiten an der Uni Koblenz oder privat.
Version: $Revision: 0.78 $